Wind_Speed
36 36 36 40 38 26 28 25 24 30 27 23 27 30 37 49 58 70 71 67 67 70 68 67 68 75 85 86 86 86 87 84 81 82 83 86 83 80 78 78 76 74 69 65 64
38 38 39 38 35 29 29 26 30 27 27 27 26 26 26 38 50 58 72 75 71 71 70 68 69 69 71 82 90 91 89 86 87 85 87 86 87 83 82 82 81 78 74 71 69
41 42 39 38 37 36 33 29 32 31 29 27 27 26 26 26 37 62 67 77 77 75 71 73 73 72 71 73 78 91 91 91 91 89 86 87 89 87 84 86 81 79 78 77 72
43 42 41 42 41 39 37 37 36 33 34 30 30 29 25 25 22 36 60 72 79 79 77 76 75 76 78 76 78 80 85 94 97 91 91 91 90 93 88 85 86 85 84 80 77
42 43 42 44 41 41 46 43 34 35 33 31 31 34 29 21 23 28 33 55 73 81 83 81 79 81 83 81 80 77 79 84 91 98 98 99 89 90 89 88 86 88 88 84 80
42 44 42 44 45 45 49 49 45 41 35 38 30 39 33 24 24 26 28 34 48 69 83 86 85 85 84 85 83 83 84 85 86 87 92 98 100 98 93 89 83 86 88 88 86
45 47 44 42 43 44 50 47 45 42 39 38 33 39 31 29 25 26 28 35 37 46 58 75 89 90 89 88 88 87 87 88 87 88 86 90 94 95 99 97 92 86 88 89 87
51 51 47 48 41 44 50 52 47 46 41 39 39 35 30 31 28 27 24 27 42 43 48 56 67 83 92 92 93 92 90 91 91 93 94 93 80 84 96 104 101 95 94 91 90
60 52 49 51 45 49 50 52 46 49 46 44 42 40 36 28 32 32 29 30 30 47 48 53 56 62 73 89 97 97 100 99 98 95 96 93 86 89 95 104 103 102 97 94 95
61 63 56 55 53 58 60 58 60 57 52 48 47 41 38 32 35 34 33 31 31 36 54 51 50 57 60 64 75 90 103 105 104 104 102 93 91 98 99 94 94 95 104 99 98
65 66 66 63 59 62 62 62 61 63 58 55 49 47 42 39 41 40 35 35 35 29 44 55 52 55 56 64 70 79 86 94 104 111 110 100 101 105 100 99 96 92 95 101 100
71 77 69 68 66 67 66 60 66 68 57 57 56 55 47 47 45 43 41 36 36 33 32 48 56 48 55 59 65 73 85 88 92 96 97 108 111 108 109 98 101 102 97 92 94
74 74 73 73 71 71 73 69 71 72 66 58 62 57 54 48 53 47 45 37 37 34 32 40 51 43 47 45 48 54 60 70 79 85 92 98 105 117 111 105 103 101 99 95 88
79 76 76 79 81 82 76 71 77 76 73 60 63 59 64 53 53 55 49 44 37 39 36 34 45 42 41 40 44 42 35 45 52 64 77 95 106 108 109 112 108 102 96 97 96
82 82 84 85 88 88 83 83 81 79 74 65 66 66 66 59 58 51 53 46 43 40 35 35 40 38 38 37 40 34 28 22 37 47 61 77 100 112 110 111 112 105 100 97 99
86 86 89 88 92 90 87 84 78 77 74 73 66 61 60 55 53 51 53 51 47 37 37 34 37 37 41 34 35 32 28 15 19 36 49 62 79 99 113 111 112 104 102 98 100
94 94 95 92 90 90 86 81 78 74 73 67 60 54 47 44 48 49 52 51 48 39 37 34 36 38 37 32 31 29 28 16 13 18 39 52 64 79 103 115 109 106 106 103 100
101 100 101 96 90 84 79 75 72 72 65 61 51 42 34 39 40 44 49 48 48 41 38 34 32 37 36 31 30 25 27 20 15 15 22 35 53 73 86 107 112 108 106 103 101
104 102 98 93 84 78 73 67 68 62 56 51 37 31 30 36 33 37 41 47 49 40 37 34 34 37 34 32 26 28 25 25 17 17 17 23 35 55 76 97 111 109 106 106 104
108 101 95 89 83 77 72 66 62 53 42 36 31 28 32 33 33 35 41 46 48 41 36 33 32 38 38 32 26 24 25 24 21 21 22 22 25 37 62 84 106 110 106 105 103
106 98 92 87 82 76 68 61 57 44 32 30 30 26 37 35 36 38 43 47 49 42 37 34 31 37 40 36 32 26 24 26 24 24 28 33 35 29 42 68 92 107 106 104 103
113 100 89 81 78 68 61 54 49 34 27 27 27 36 48 47 41 38 45 48 52 47 43 37 32 34 40 41 36 30 26 25 27 26 28 34 35 38 40 52 74 98 104 102 104
97 93 84 74 68 59 55 50 40 28 25 24 28 44 47 54 49 42 43 51 52 50 45 40 36 34 38 40 42 36 30 27 27 28 30 31 37 39 41 44 58 79 97 103 101
95 84 76 64 59 54 50 43 31 24 23 20 34 54 58 52 48 43 48 49 52 53 47 43 38 35 37 40 41 42 37 34 30 29 31 35 35 37 44 44 46 60 77 90 99
86 71 65 59 54 48 42 35 26 21 22 25 41 57 52 48 51 39 37 41 52 58 49 47 43 39 36 39 44 44 44 42 38 37 36 35 36 37 40 43 47 53 64 80 88
73 65 57 49 43 39 33 28 21 22 22 35 48 62 63 65 60 48 46 44 52 57 54 50 49 45 41 39 40 46 46 46 46 48 44 43 40 36 39 43 48 50 56 61 75
64 55 47 40 36 33 28 24 20 26 26 40 59 64 69 70 66 60 58 52 56 53 56 54 51 48 44 43 40 40 46 50 51 52 51 52 47 46 44 42 42 46 53 58 64
Wind_Direction
344 344 343 342 344 347 354 350 310 293 278 277 268 272 262 256 247 240 237 235 233 234 234 232 233 233 230 229 232 232 232 233 233 230 233 230 231 233 228 228 226 228 226 227 233
343 349 344 343 339 335 339 344 351 335 309 297 294 292 291 264 245 240 235 233 233 235 235 234 234 232 231 231 228 230 232 232 232 230 232 232 230 233 230 230 227 227 228 227 228
346 346 347 344 342 340 335 338 344 344 341 316 304 299 303 296 252 234 233 230 230 233 234 235 236 237 234 231 230 230 229 229 231 230 231 233 232 234 232 230 228 229 231 230 229
340 337 337 337 339 343 339 335 331 338 335 333 326 304 305 290 291 250 234 231 229 230 232 232 235 237 236 235 229 226 228 231 232 232 229 229 230 234 234 231 228 231 231 232 232
335 335 330 333 331 331 338 338 327 325 317 322 324 327 303 291 280 277 251 237 233 230 230 231 233 236 237 237 235 230 229 228 231 231 232 232 230 235 234 234 230 233 235 232 233
332 332 330 333 332 330 331 333 332 330 322 312 310 325 317 295 275 275 260 254 243 236 234 232 232 235 237 237 237 235 232 227 229 230 232 234 232 231 234 235 234 232 236 237 233
330 328 327 327 323 322 329 326 318 321 317 314 299 307 305 302 290 267 268 247 248 245 239 238 235 235 235 235 237 237 237 234 229 229 231 234 232 230 233 234 235 231 236 239 241
331 329 327 328 323 328 328 327 321 314 312 306 302 292 284 297 287 266 267 264 242 243 242 238 240 240 237 237 237 239 238 237 235 231 230 233 231 233 230 234 232 229 233 234 242
342 328 323 321 320 324 325 329 324 323 307 303 296 289 284 278 299 275 258 263 257 239 241 240 239 238 241 242 241 241 240 239 237 235 234 232 231 233 229 231 231 230 229 233 239
337 336 324 320 320 319 320 323 322 322 319 305 300 286 281 276 284 281 264 261 259 247 239 241 241 242 241 244 245 246 245 243 242 239 235 233 232 234 232 229 232 231 232 227 232
335 329 325 322 316 317 315 316 315 317 313 309 301 292 275 271 270 275 263 256 256 257 243 239 241 242 239 242 244 247 247 248 244 241 240 235 232 234 233 229 231 231 234 230 227
333 329 325 321 318 315 315 313 306 311 312 299 299 293 283 264 264 264 260 256 254 254 254 239 240 241 243 247 250 254 253 250 248 245 241 237 234 233 232 231 229 230 232 231 228
330 326 326 320 317 315 313 308 308 310 307 300 293 288 284 275 261 259 258 249 253 252 259 246 238 238 248 255 262 263 260 253 247 244 238 234 230 233 230 231 231 230 231 234 229
327 324 321 321 318 316 316 306 305 305 305 296 290 284 276 268 262 252 254 243 246 251 252 256 237 238 247 263 272 267 263 255 243 236 232 229 225 227 228 226 228 229 230 232 232
325 322 319 319 316 314 310 309 305 304 303 294 283 281 272 266 252 246 245 237 237 242 247 256 239 239 250 262 274 274 271 270 251 235 226 225 222 223 224 224 224 227 228 230 233
323 318 320 317 313 310 309 305 302 300 300 293 287 283 276 265 248 242 239 229 232 233 241 252 238 238 245 261 275 276 281 277 261 238 228 220 217 221 221 222 221 220 225 226 230
318 317 317 314 310 307 305 303 303 297 294 293 291 285 272 254 241 236 234 229 226 225 234 243 235 233 242 257 268 268 278 273 271 234 226 224 220 219 219 220 220 219 221 224 227
317 316 316 315 310 305 303 304 300 296 298 294 290 277 256 243 231 227 227 223 223 221 228 238 236 230 236 248 258 264 272 271 261 241 228 223 221 220 217 218 217 218 219 222 225
320 315 313 314 310 306 304 302 299 299 299 290 281 266 247 216 208 217 219 215 216 218 223 232 235 228 230 240 251 256 258 266 246 237 228 226 225 220 218 216 215 215 217 221 224
321 315 313 311 310 306 304 301 300 300 293 281 266 246 229 199 201 200 206 211 210 212 219 225 235 227 226 234 243 252 249 258 250 231 223 223 220 226 220 217 215 214 216 221 224
320 316 312 311 309 306 303 300 300 299 284 263 253 229 214 181 210 197 199 205 206 209 214 221 231 225 224 226 231 238 252 245 250 237 223 216 219 214 224 220 217 215 216 220 223
319 314 312 309 307 304 301 299 299 294 275 255 239 214 200 183 203 214 200 201 205 209 211 220 227 227 221 222 225 230 234 239 238 240 236 226 223 218 220 224 220 217 218 221 223
318 312 308 306 303 302 298 297 295 288 265 249 228 201 185 186 199 196 204 203 207 209 211 214 221 227 221 221 224 221 227 234 237 235 236 238 233 225 224 224 227 223 222 224 227
316 310 306 304 300 297 293 291 286 277 254 236 211 192 185 188 196 200 207 204 212 209 211 215 219 222 223 221 221 225 222 226 230 234 235 236 236 232 230 229 226 229 227 226 229
313 310 304 301 297 291 287 282 273 257 239 217 201 189 182 194 203 193 216 221 215 210 210 217 217 223 222 221 222 222 223 225 226 229 232 237 239 238 238 236 232 228 230 231 231
313 309 303 298 292 285 279 271 256 231 219 209 200 185 183 196 202 194 206 219 225 211 212 217 218 220 220 220 223 225 224 226 226 229 230 234 235 239 238 237 239 236 234 233 234
312 307 302 297 288 279 269 256 236 216 210 202 193 191 191 195 202 195 202 210 221 214 216 215 219 220 221 222 223 228 229 227 228 231 232 234 234 233 236 237 237 238 240 239 236
Height
10777 10772 10765 10759 10753 10749 10743 10738 10734 10729 10722 10718 10714 10708 10705 10705 10710 10715 10721 10729 10734 10737 10744 10752 10759 10767 10774 10785 10794 10800 10812 10829 10833 10837 10839 10844 10857 10864 10875 10882 10889 10896 10904 10912 10914
10772 10766 10760 10754 10748 10742 10737 10732 10726 10720 10715 10711 10706 10700 10693 10690 10693 10697 10703 10711 10718 10720 10731 10740 10744 10750 10758 10767 10776 10784 10795 10807 10808 10817 10825 10833 10841 10849 10859 10866 10873 10884 10894 10898 10904
10768 10762 10756 10750 10744 10737 10731 10725 10719 10714 10708 10703 10697 10692 10687 10681 10679 10681 10685 10694 10701 10706 10717 10724 10729 10734 10743 10748 10757 10769 10782 10785 10790 10800 10811 10817 10827 10833 10844 10852 10868 10876 10881 10887 10895
10763 10756 10750 10744 10738 10731 10725 10719 10712 10706 10701 10696 10690 10685 10681 10675 10672 10668 10671 10679 10686 10693 10700 10707 10714 10719 10722 10730 10735 10748 10759 10768 10773 10784 10791 10798 10809 10812 10827 10842 10851 10856 10865 10875 10883
10756 10749 10743 10737 10730 10724 10718 10712 10706 10700 10695 10688 10683 10679 10674 10669 10666 10660 10662 10663 10670 10676 10682 10690 10697 10700 10705 10713 10722 10736 10743 10749 10756 10765 10770 10775 10797 10803 10812 10819 10833 10842 10848 10858 10867
10748 10742 10735 10728 10721 10715 10708 10702 10696 10691 10686 10680 10675 10670 10666 10663 10659 10655 10653 10655 10656 10661 10667 10673 10680 10683 10690 10694 10706 10712 10720 10732 10738 10746 10751 10760 10775 10784 10794 10803 10822 10832 10834 10841 10852
10739 10732 10725 10718 10710 10704 10697 10690 10686 10681 10676 10671 10665 10661 10657 10653 10651 10648 10645 10645 10646 10648 10651 10657 10661 10666 10671 10678 10683 10693 10704 10712 10723 10728 10737 10737 10751 10783 10782 10789 10801 10817 10820 10827 10833
10729 10722 10715 10708 10701 10694 10688 10682 10676 10670 10664 10659 10654 10650 10644 10641 10639 10638 10636 10633 10633 10636 10638 10641 10646 10650 10656 10661 10667 10676 10685 10692 10699 10707 10714 10717 10755 10755 10765 10766 10778 10797 10803 10813 10817
10719 10710 10702 10696 10689 10682 10677 10671 10664 10658 10652 10647 10641 10637 10634 10631 10629 10627 10626 10623 10620 10622 10625 10627 10630 10635 10640 10644 10650 10656 10660 10667 10673 10686 10689 10707 10733 10731 10736 10736 10760 10775 10785 10800 10803
10704 10697 10690 10682 10676 10670 10663 10657 10651 10645 10639 10633 10627 10623 10620 10619 10616 10615 10613 10610 10608 10607 10610 10614 10618 10622 10627 10628 10630 10633 10636 10644 10654 10662 10668 10696 10708 10703 10714 10735 10746 10756 10761 10778 10787
10691 10684 10676 10668 10661 10654 10648 10641 10634 10630 10622 10617 10612 10606 10605 10603 10601 10600 10599 10597 10595 10594 10595 10600 10605 10605 10613 10611 10613 10612 10616 10619 10625 10631 10646 10676 10681 10679 10696 10712 10723 10736 10737 10755 10776
10677 10670 10660 10650 10643 10635 10629 10624 10614 10611 10612 10597 10593 10586 10587 10585 10585 10584 10583 10583 10582 10582 10582 10584 10586 10596 10594 10595 10596 10592 10591 10596 10598 10604 10625 10640 10651 10666 10666 10698 10706 10712 10722 10742 10760
10663 10653 10644 10633 10623 10615 10610 10602 10593 10588 10588 10581 10571 10568 10563 10568 10564 10568 10567 10568 10569 10570 10568 10569 10574 10582 10577 10580 10578 10573 10568 10570 10571 10580 10593 10605 10623 10624 10655 10676 10684 10698 10710 10723 10738
10646 10636 10627 10614 10604 10594 10588 10579 10570 10562 10559 10558 10546 10545 10535 10543 10544 10544 10549 10552 10555 10555 10556 10557 10561 10566 10567 10565 10563 10560 10556 10549 10547 10551 10564 10578 10595 10607 10630 10649 10663 10680 10696 10704 10714
10627 10619 10608 10597 10583 10570 10564 10556 10544 10536 10529 10525 10518 10514 10510 10515 10516 10529 10527 10536 10539 10541 10545 10543 10549 10554 10555 10555 10550 10550 10544 10539 10534 10537 10543 10555 10572 10588 10605 10624 10644 10664 10678 10689 10697
10605 10595 10587 10574 10559 10547 10538 10527 10517 10507 10502 10490 10488 10488 10485 10486 10495 10503 10511 10517 10523 10530 10531 10532 10536 10542 10541 10544 10541 10539 10536 10533 10529 10527 10532 10537 10550 10562 10587 10606 10624 10646 10659 10673 10679
10582 10570 10561 10552 10536 10518 10509 10500 10490 10480 10468 10466 10463 10461 10459 10464 10471 10482 10491 10500 10509 10515 10519 10521 10525 10530 10533 10534 10533 10532 10530 10527 10525 10522 10520 10526 10536 10550 10564 10586 10614 10630 10637 10653 10664
10558 10545 10531 10519 10506 10494 10481 10472 10462 10453 10446 10438 10440 10437 10439 10444 10455 10465 10475 10487 10495 10502 10506 10511 10516 10519 10523 10525 10526 10526 10525 10525 10524 10521 10521 10523 10529 10533 10555 10573 10594 10609 10625 10638 10647
10532 10512 10501 10489 10476 10465 10456 10449 10437 10432 10425 10419 10419 10419 10425 10432 10441 10452 10462 10470 10482 10491 10497 10501 10505 10510 10515 10516 10520 10521 10521 10522 10522 10523 10523 10524 10528 10533 10542 10557 10577 10592 10609 10619 10630
10507 10485 10471 10457 10447 10437 10431 10421 10417 10413 10408 10403 10399 10404 10412 10420 10429 10440 10450 10460 10471 10479 10486 10491 10496 10501 10506 10509 10514 10515 10516 10519 10521 10523 10524 10525 10527 10532 10539 10548 10561 10579 10594 10606 10619
10473 10457 10444 10429 10419 10410 10405 10398 10394 10392 10390 10386 10385 10390 10401 10413 10423 10429 10439 10449 10460 10469 10476 10481 10487 10492 10497 10502 10506 10510 10512 10515 10517 10520 10522 10523 10524 10531 10534 10543 10554 10568 10583 10595 10607
10443 10421 10418 10401 10390 10386 10381 10375 10375 10374 10372 10371 10374 10381 10389 10399 10408 10418 10428 10440 10447 10455 10464 10471 10477 10483 10487 10494 10499 10503 10506 10510 10513 10516 10519 10521 10524 10528 10531 10538 10547 10560 10573 10586 10597
10415 10393 10384 10377 10367 10363 10359 10356 10356 10357 10356 10358 10361 10372 10381 10392 10398 10407 10419 10427 10436 10446 10455 10461 10469 10474 10480 10486 10491 10496 10500 10504 10507 10510 10514 10516 10519 10526 10529 10535 10544 10554 10566 10577 10588
10387 10369 10356 10351 10345 10342 10340 10340 10341 10342 10342 10346 10352 10362 10371 10381 10392 10401 10407 10418 10425 10437 10445 10452 10459 10466 10470 10476 10484 10489 10494 10498 10502 10504 10506 10508 10514 10519 10525 10532 10539 10548 10556 10565 10575
10355 10344 10333 10329 10324 10321 10321 10324 10327 10329 10331 10336 10344 10354 10367 10376 10382 10394 10401 10407 10415 10424 10436 10443 10449 10456 10462 10468 10473 10480 10486 10491 10495 10497 10500 10505 10507 10513 10519 10526 10532 10537 10545 10553 10563
10329 10318 10311 10307 10305 10302 10305 10309 10313 10317 10321 10327 10335 10344 10356 10368 10375 10385 10393 10400 10401 10416 10426 10432 10438 10445 10453 10459 10465 10471 10476 10482 10487 10489 10494 10497 10502 10509 10512 10517 10523 10530 10536 10542 10548
10304 10297 10291 10290 10287 10287 10290 10294 10300 10305 10310 10317 10329 10336 10344 10356 10365 10373 10382 10388 10391 10404 10413 10423 10429 10436 10445 10451 10457 10462 10466 10471 10476 10480 10485 10487 10496 10500 10506 10511 10515 10520 10525 10531 10536